{"data":{"norad_id":64744,"epoch":"2026-05-24T20:03:47.080512Z","epoch_age_seconds":82390,"freshness":"FRESH","line1":"1 64744U 25144W   26144.83596158  .00014442  00000+0  49889-3 0  9998","line2":"2 64744  53.1585 187.1015 0000849  88.0778 272.0320 15.30192519 51374","mean_motion":15.30192519,"eccentricity":8.49e-5,"inclination_deg":53.1585,"raan_deg":187.1015,"arg_perigee_deg":88.0778,"mean_anomaly_deg":272.032,"bstar":0.00049889,"rev_number":5137,"period_min":94.105805780639,"perigee_km":474.65555494076,"apogee_km":475.81925791497,"semimajor_km":6853.3744064279,"source":"CELESTRAK","updated_at":"2026-05-25T13:38:20.549155Z"}}